UMBRA-05 (55036 NORAD) Tracking and Keplerian Element Data

This shows tracking and keplerian element data for the satellite.

Feedback or suggestion? Click here.




ElementValue
Catalog55036
NameUMBRA-05
Epoch Orbit1244
Epoch Day84.77628157
Epoch Year2023
RAAN145.7626
Inclination97.4891
Eccentricity0.0010501
Argument of Perigee279.7028
Mean Anonmoly80.3019
Mean Motion15.16908985
Decay Rate0.00037159
L11 55036U 23001AD 23084.77628157 .00037159 00000+0 18783-2 0 9998
L22 55036 97.4891 145.7626 0010501 279.7028 80.3019 15.16908985 12446



Live tracking and technical data element details for UMBRA-05 (NORAD 55036). UMBRA-05 can be tracked NOW for your location showing map with azimuth and elevation plus other details from your city location.







IsCatalogInMostPopularTable: catalog: 55036, numindb: 10
Update: records affected: 1



GetName: 55036 UMBRA-05

Hit Count: updated at: Mon, 27 Mar 2023 07:42:59 GMT